Time,TemperatureF,DewpointF,PressureIn,WindDirection,WindDirectionDegrees,WindSpeedMPH,WindSpeedGustMPH,Humidity,HourlyPrecipIn,Conditions,Clouds,dailyrainin,SoftwareType,DateUTC
2013-04-04 00:02:00,38.0,29.0,30.10,SSE,153,2.0,5.0,69,0.00,,,0.00,,2013-04-04 05:02:00,
2013-04-04 00:13:00,38.0,29.0,30.10,SSE,153,2.0,5.0,69,0.00,,,0.00,,2013-04-04 05:13:00,
2013-04-04 00:23:00,38.0,28.0,30.09,East,88,2.0,5.0,68,0.00,,,0.00,,2013-04-04 05:23:00,
2013-04-04 00:32:00,38.0,29.0,30.09,SSE,147,1.0,4.0,69,0.00,,,0.00,,2013-04-04 05:32:00,
2013-04-04 00:42:00,38.0,29.0,30.09,SSE,147,1.0,4.0,69,0.00,,,0.00,,2013-04-04 05:42:00,
2013-04-04 00:52:00,37.0,28.0,30.09,SE,136,1.0,4.0,70,0.00,,,0.00,,2013-04-04 05:52:00,
2013-04-04 01:02:00,37.0,28.0,30.09,SE,136,1.0,4.0,70,0.00,,,0.00,,2013-04-04 06:02:00,
2013-04-04 01:12:00,37.0,28.0,30.09,SE,136,1.0,4.0,70,0.00,,,0.00,,2013-04-04 06:12:00,
2013-04-04 01:22:00,37.0,28.0,30.11,South,190,4.0,8.0,71,0.00,,,0.00,,2013-04-04 06:22:00,
2013-04-04 01:32:00,36.0,28.0,30.11,SW,214,4.0,7.0,72,0.00,,,0.00,,2013-04-04 06:32:00,
2013-04-04 01:42:00,36.0,28.0,30.11,SW,214,4.0,7.0,72,0.00,,,0.00,,2013-04-04 06:42:00,
2013-04-04 01:52:00,36.0,28.0,30.11,SSW,198,2.0,7.0,73,0.00,,,0.00,,2013-04-04 06:52:00,
2013-04-04 02:02:00,36.0,29.0,30.10,SW,220,1.0,4.0,74,0.00,,,0.00,,2013-04-04 07:02:00,
2013-04-04 02:12:00,36.0,29.0,30.10,SW,220,1.0,4.0,74,0.00,,,0.00,,2013-04-04 07:12:00,
2013-04-04 02:22:00,36.0,29.0,30.10,SSW,198,1.0,5.0,75,0.00,,,0.00,,2013-04-04 07:22:00,
2013-04-04 02:32:00,35.0,28.0,30.10,SW,227,0.0,4.0,75,0.00,,,0.00,,2013-04-04 07:32:00,
2013-04-04 02:43:00,35.0,28.0,30.10,SW,227,0.0,4.0,75,0.00,,,0.00,,2013-04-04 07:43:00,
2013-04-04 02:52:00,35.0,28.0,30.10,SW,214,2.0,5.0,75,0.00,,,0.00,,2013-04-04 07:52:00,
2013-04-04 03:02:00,35.0,28.0,30.09,SSW,196,1.0,7.0,76,0.00,,,0.00,,2013-04-04 08:02:00,
2013-04-04 03:12:00,35.0,28.0,30.09,SSW,196,1.0,7.0,76,0.00,,,0.00,,2013-04-04 08:12:00,
2013-04-04 03:23:00,35.0,28.0,30.10,West,272,0.0,4.0,75,0.00,,,0.00,,2013-04-04 08:23:00,
2013-04-04 03:32:00,35.0,28.0,30.10,SSW,213,1.0,6.0,76,0.00,,,0.00,,2013-04-04 08:32:00,
2013-04-04 03:43:00,35.0,28.0,30.10,SSW,213,1.0,6.0,76,0.00,,,0.00,,2013-04-04 08:43:00,
2013-04-04 03:52:00,34.0,28.0,30.09,SSW,213,1.0,3.0,77,0.00,,,0.00,,2013-04-04 08:52:00,
2013-04-04 04:02:00,34.0,28.0,30.08,South,184,2.0,4.0,77,0.00,,,0.00,,2013-04-04 09:02:00,
2013-04-04 04:12:00,34.0,28.0,30.08,South,184,2.0,4.0,77,0.00,,,0.00,,2013-04-04 09:12:00,
2013-04-04 04:22:00,34.0,28.0,30.08,SW,231,0.0,3.0,77,0.00,,,0.00,,2013-04-04 09:22:00,
2013-04-04 04:33:00,34.0,28.0,30.05,SSW,200,1.0,5.0,77,0.00,,,0.00,,2013-04-04 09:33:00,
2013-04-04 04:43:00,34.0,28.0,30.05,SSW,200,1.0,5.0,77,0.00,,,0.00,,2013-04-04 09:43:00,
2013-04-04 04:53:00,34.0,28.0,30.05,SSW,196,0.0,2.0,78,0.00,,,0.00,,2013-04-04 09:53:00,
2013-04-04 05:04:00,33.0,27.0,30.05,SSW,196,0.0,0.0,78,0.00,,,0.00,,2013-04-04 10:04:00,
2013-04-04 05:12:00,33.0,27.0,30.05,SSW,196,0.0,0.0,78,0.00,,,0.00,,2013-04-04 10:12:00,
2013-04-04 05:23:00,32.0,27.0,30.06,SSW,196,0.0,1.0,80,0.00,,,0.00,,2013-04-04 10:23:00,
2013-04-04 05:33:00,32.0,27.0,30.06,SSW,196,0.0,2.0,81,0.00,,,0.00,,2013-04-04 10:33:00,
2013-04-04 05:42:00,32.0,27.0,30.06,SSW,196,0.0,2.0,81,0.00,,,0.00,,2013-04-04 10:42:00,
2013-04-04 05:53:00,32.0,27.0,30.05,SSW,198,0.0,0.0,80,0.00,,,0.00,,2013-04-04 10:53:00,
2013-04-04 06:02:00,32.0,27.0,30.06,SSW,198,0.0,0.0,80,0.00,,,0.00,,2013-04-04 11:02:00,
2013-04-04 06:12:00,32.0,27.0,30.06,SSW,198,0.0,0.0,80,0.00,,,0.00,,2013-04-04 11:12:00,
2013-04-04 06:22:00,31.0,26.0,30.07,SSW,198,0.0,0.0,81,0.00,,,0.00,,2013-04-04 11:22:00,
2013-04-04 06:33:00,30.0,25.0,30.08,WSW,257,0.0,2.0,81,0.00,,,0.00,,2013-04-04 11:33:00,
2013-04-04 06:42:00,30.0,25.0,30.08,WSW,257,0.0,2.0,81,0.00,,,0.00,,2013-04-04 11:42:00,
2013-04-04 06:53:00,29.0,25.0,30.08,West,262,0.0,2.0,84,0.00,,,0.00,,2013-04-04 11:53:00,
2013-04-04 07:02:00,30.0,26.0,30.07,West,259,1.0,2.0,84,0.00,,,0.00,,2013-04-04 12:02:00,
2013-04-04 07:12:00,30.0,26.0,30.07,West,259,1.0,2.0,84,0.00,,,0.00,,2013-04-04 12:12:00,
2013-04-04 07:22:00,30.0,26.0,30.07,WSW,254,0.0,3.0,84,0.00,,,0.00,,2013-04-04 12:22:00,
2013-04-04 07:32:00,30.0,26.0,30.08,WSW,252,0.0,2.0,84,0.00,,,0.00,,2013-04-04 12:32:00,
2013-04-04 07:43:00,30.0,26.0,30.08,WSW,252,0.0,2.0,84,0.00,,,0.00,,2013-04-04 12:43:00,
2013-04-04 07:52:00,29.0,25.0,30.08,WSW,252,0.0,2.0,85,0.00,,,0.00,,2013-04-04 12:52:00,
2013-04-04 08:02:00,29.0,25.0,30.08,WSW,252,0.0,0.0,84,0.00,,,0.00,,2013-04-04 13:02:00,
2013-04-04 08:12:00,29.0,25.0,30.08,WSW,252,0.0,0.0,84,0.00,,,0.00,,2013-04-04 13:12:00,
2013-04-04 08:22:00,30.0,26.0,30.08,WSW,252,0.0,0.0,85,0.00,,,0.00,,2013-04-04 13:22:00,
2013-04-04 08:32:00,30.0,26.0,30.08,WSW,252,0.0,2.0,85,0.00,,,0.00,,2013-04-04 13:32:00,
2013-04-04 08:42:00,30.0,26.0,30.08,WSW,252,0.0,2.0,85,0.00,,,0.00,,2013-04-04 13:42:00,
2013-04-04 08:52:00,30.0,26.0,30.09,WSW,257,0.0,3.0,85,0.00,,,0.00,,2013-04-04 13:52:00,
2013-04-04 09:03:00,32.0,28.0,30.09,WSW,252,2.0,4.0,84,0.00,,,0.00,,2013-04-04 14:03:00,
2013-04-04 09:12:00,32.0,28.0,30.09,WSW,252,2.0,4.0,84,0.00,,,0.00,,2013-04-04 14:12:00,
2013-04-04 09:22:00,34.0,29.0,30.09,WSW,254,1.0,3.0,82,0.00,,,0.00,,2013-04-04 14:22:00,
2013-04-04 09:32:00,37.0,30.0,30.08,WSW,242,1.0,5.0,77,0.00,,,0.00,,2013-04-04 14:32:00,
2013-04-04 09:52:00,40.0,32.0,30.10,NNE,15,4.0,8.0,72,0.00,,,0.00,,2013-04-04 14:52:00,
2013-04-04 10:02:00,42.0,33.0,30.10,SW,227,1.0,9.0,70,0.00,,,0.00,,2013-04-04 15:02:00,
2013-04-04 10:12:00,42.0,33.0,30.10,SW,227,1.0,9.0,70,0.00,,,0.00,,2013-04-04 15:12:00,
2013-04-04 10:23:00,44.0,32.0,30.09,North,355,2.0,7.0,63,0.00,,,0.00,,2013-04-04 15:23:00,
2013-04-04 10:33:00,45.0,32.0,30.09,North,5,3.0,5.0,61,0.00,,,0.00,,2013-04-04 15:33:00,
2013-04-04 10:43:00,45.0,32.0,30.09,North,5,3.0,5.0,61,0.00,,,0.00,,2013-04-04 15:43:00,
2013-04-04 10:53:00,46.0,32.0,30.10,NE,34,1.0,5.0,59,0.00,,,0.00,,2013-04-04 15:53:00,
2013-04-04 11:03:00,47.0,33.0,30.10,NNE,30,0.0,7.0,58,0.00,,,0.00,,2013-04-04 16:03:00,
2013-04-04 11:12:00,47.0,33.0,30.10,NNE,30,0.0,7.0,58,0.00,,,0.00,,2013-04-04 16:12:00,
2013-04-04 11:24:00,48.0,32.0,30.10,NNE,31,2.0,8.0,54,0.00,,,0.00,,2013-04-04 16:24:00,
2013-04-04 11:32:00,49.0,33.0,30.10,NW,311,1.0,8.0,54,0.00,,,0.00,,2013-04-04 16:32:00,
2013-04-04 11:42:00,49.0,33.0,30.10,NW,311,1.0,8.0,54,0.00,,,0.00,,2013-04-04 16:42:00,
2013-04-04 11:53:00,50.0,34.0,30.10,SSE,157,1.0,10.0,53,0.00,,,0.00,,2013-04-04 16:53:00,
2013-04-04 12:03:00,52.0,33.0,30.10,North,360,3.0,8.0,49,0.00,,,0.00,,2013-04-04 17:03:00,
2013-04-04 12:13:00,52.0,33.0,30.10,North,360,3.0,8.0,49,0.00,,,0.00,,2013-04-04 17:13:00,
2013-04-04 12:22:00,52.0,32.0,30.10,North,5,3.0,8.0,47,0.00,,,0.00,,2013-04-04 17:22:00,
2013-04-04 12:33:00,53.0,33.0,30.10,NE,34,2.0,9.0,46,0.00,,,0.00,,2013-04-04 17:33:00,
2013-04-04 12:42:00,53.0,33.0,30.10,NE,34,2.0,9.0,46,0.00,,,0.00,,2013-04-04 17:42:00,
2013-04-04 12:52:00,54.0,34.0,30.10,North,11,2.0,8.0,46,0.00,,,0.00,,2013-04-04 17:52:00,
2013-04-04 13:02:00,55.0,32.0,30.09,North,11,3.0,7.0,42,0.00,,,0.00,,2013-04-04 18:02:00,
2013-04-04 13:12:00,55.0,32.0,30.09,North,11,3.0,7.0,42,0.00,,,0.00,,2013-04-04 18:12:00,
2013-04-04 13:23:00,57.0,33.0,30.08,NNE,27,4.0,7.0,40,0.00,,,0.00,,2013-04-04 18:23:00,
2013-04-04 13:32:00,57.0,33.0,30.07,NE,44,2.0,8.0,40,0.00,,,0.00,,2013-04-04 18:32:00,
2013-04-04 13:43:00,57.0,33.0,30.07,NE,44,2.0,8.0,40,0.00,,,0.00,,2013-04-04 18:43:00,
2013-04-04 13:52:00,58.0,33.0,30.06,NNE,14,1.0,7.0,39,0.00,,,0.00,,2013-04-04 18:52:00,
2013-04-04 14:02:00,59.0,33.0,30.06,ENE,61,3.0,7.0,37,0.00,,,0.00,,2013-04-04 19:02:00,
2013-04-04 14:12:00,59.0,33.0,30.06,ENE,61,3.0,7.0,37,0.00,,,0.00,,2013-04-04 19:12:00,
2013-04-04 14:22:00,60.0,34.0,30.05,NNE,13,3.0,7.0,37,0.00,,,0.00,,2013-04-04 19:22:00,
2013-04-04 14:32:00,60.0,34.0,30.04,East,94,1.0,8.0,37,0.00,,,0.00,,2013-04-04 19:32:00,
2013-04-04 14:42:00,60.0,34.0,30.04,East,94,1.0,8.0,37,0.00,,,0.00,,2013-04-04 19:42:00,
2013-04-04 14:52:00,61.0,34.0,30.03,ENE,71,2.0,7.0,36,0.00,,,0.00,,2013-04-04 19:52:00,
2013-04-04 15:03:00,61.0,36.0,30.03,East,80,3.0,8.0,39,0.00,,,0.00,,2013-04-04 20:03:00,
2013-04-04 15:12:00,61.0,36.0,30.03,East,80,3.0,8.0,39,0.00,,,0.00,,2013-04-04 20:12:00,
2013-04-04 15:22:00,62.0,34.0,30.02,NNE,22,4.0,9.0,35,0.00,,,0.00,,2013-04-04 20:22:00,
2013-04-04 15:32:00,61.0,33.0,30.02,ENE,78,2.0,8.0,35,0.00,,,0.00,,2013-04-04 20:32:00,
2013-04-04 15:42:00,61.0,33.0,30.02,ENE,78,2.0,8.0,35,0.00,,,0.00,,2013-04-04 20:42:00,
2013-04-04 15:53:00,61.0,33.0,30.02,ENE,73,5.0,10.0,35,0.00,,,0.00,,2013-04-04 20:53:00,
2013-04-04 16:02:00,62.0,33.0,30.01,SE,136,1.0,6.0,34,0.00,,,0.00,,2013-04-04 21:02:00,
2013-04-04 16:12:00,62.0,33.0,30.01,SE,136,1.0,6.0,34,0.00,,,0.00,,2013-04-04 21:12:00,
2013-04-04 16:22:00,63.0,34.0,30.00,NNE,32,1.0,6.0,34,0.00,,,0.00,,2013-04-04 21:22:00,
2013-04-04 16:32:00,63.0,35.0,30.00,NE,54,3.0,6.0,35,0.00,,,0.00,,2013-04-04 21:32:00,
2013-04-04 16:43:00,63.0,35.0,30.00,NE,54,3.0,6.0,35,0.00,,,0.00,,2013-04-04 21:43:00,
2013-04-04 16:52:00,64.0,37.0,29.99,SE,141,1.0,5.0,37,0.00,,,0.00,,2013-04-04 21:52:00,
2013-04-04 17:03:00,64.0,34.0,29.99,NNE,28,1.0,6.0,32,0.00,,,0.00,,2013-04-04 22:03:00,
2013-04-04 17:12:00,64.0,34.0,29.99,NNE,28,1.0,6.0,32,0.00,,,0.00,,2013-04-04 22:12:00,
2013-04-04 17:23:00,64.0,34.0,29.99,NE,49,2.0,10.0,33,0.00,,,0.00,,2013-04-04 22:23:00,
2013-04-04 17:33:00,64.0,34.0,29.99,NNE,26,1.0,9.0,33,0.00,,,0.00,,2013-04-04 22:33:00,
2013-04-04 17:42:00,64.0,34.0,29.99,NNE,26,1.0,9.0,33,0.00,,,0.00,,2013-04-04 22:42:00,
2013-04-04 17:53:00,65.0,34.0,29.99,North,5,3.0,6.0,32,0.00,,,0.00,,2013-04-04 22:53:00,
2013-04-04 18:03:00,65.0,34.0,29.99,North,5,3.0,6.0,32,0.00,,,0.00,,2013-04-04 23:03:00,
2013-04-04 18:12:00,65.0,34.0,29.99,North,5,3.0,6.0,32,0.00,,,0.00,,2013-04-04 23:12:00,
2013-04-04 18:22:00,64.0,34.0,29.98,NNE,32,2.0,7.0,32,0.00,,,0.00,,2013-04-04 23:22:00,
2013-04-04 18:32:00,64.0,34.0,29.98,ENE,69,1.0,7.0,33,0.00,,,0.00,,2013-04-04 23:32:00,
2013-04-04 18:42:00,64.0,34.0,29.98,ENE,69,1.0,7.0,33,0.00,,,0.00,,2013-04-04 23:42:00,
2013-04-04 18:52:00,64.0,34.0,29.98,NNE,31,1.0,8.0,32,0.00,,,0.00,,2013-04-04 23:52:00,
2013-04-04 19:02:00,63.0,33.0,29.98,ENE,58,2.0,7.0,32,0.00,,,0.00,,2013-04-05 00:02:00,
2013-04-04 19:12:00,63.0,33.0,29.98,ENE,58,2.0,7.0,32,0.00,,,0.00,,2013-04-05 00:12:00,
2013-04-04 19:22:00,63.0,33.0,29.98,NE,40,5.0,8.0,33,0.00,,,0.00,,2013-04-05 00:22:00,
2013-04-04 19:32:00,62.0,33.0,29.98,ENE,74,3.0,6.0,34,0.00,,,0.00,,2013-04-05 00:32:00,
2013-04-04 19:42:00,62.0,33.0,29.98,ENE,74,3.0,6.0,34,0.00,,,0.00,,2013-04-05 00:42:00,
2013-04-04 19:52:00,61.0,33.0,29.98,NE,43,2.0,7.0,35,0.00,,,0.00,,2013-04-05 00:52:00,
2013-04-04 20:02:00,60.0,33.0,29.98,NE,47,2.0,8.0,36,0.00,,,0.00,,2013-04-05 01:02:00,
2013-04-04 20:12:00,60.0,33.0,29.98,NE,47,2.0,8.0,36,0.00,,,0.00,,2013-04-05 01:12:00,
2013-04-04 20:22:00,59.0,33.0,29.98,ENE,59,3.0,6.0,37,0.00,,,0.00,,2013-04-05 01:22:00,
2013-04-04 20:32:00,58.0,33.0,29.98,NNE,23,3.0,6.0,39,0.00,,,0.00,,2013-04-05 01:32:00,
2013-04-04 20:42:00,58.0,33.0,29.98,NNE,23,3.0,6.0,39,0.00,,,0.00,,2013-04-05 01:42:00,
2013-04-04 20:52:00,57.0,33.0,29.98,ENE,62,3.0,7.0,40,0.00,,,0.00,,2013-04-05 01:52:00,
2013-04-04 21:03:00,55.0,32.0,29.98,ENE,57,3.0,6.0,41,0.00,,,0.00,,2013-04-05 02:03:00,
2013-04-04 21:12:00,55.0,32.0,29.98,ENE,57,3.0,6.0,41,0.00,,,0.00,,2013-04-05 02:12:00,
2013-04-04 21:22:00,53.0,31.0,29.99,NE,49,3.0,8.0,43,0.00,,,0.00,,2013-04-05 02:22:00,
2013-04-04 21:32:00,51.0,30.0,29.99,ENE,70,3.0,7.0,45,0.00,,,0.00,,2013-04-05 02:32:00,
2013-04-04 21:42:00,51.0,30.0,29.99,ENE,70,3.0,7.0,45,0.00,,,0.00,,2013-04-05 02:42:00,
2013-04-04 21:52:00,50.0,31.0,30.00,NE,51,2.0,8.0,47,0.00,,,0.00,,2013-04-05 02:52:00,
2013-04-04 22:02:00,49.0,30.0,30.00,ENE,60,3.0,7.0,48,0.00,,,0.00,,2013-04-05 03:02:00,
2013-04-04 22:12:00,49.0,30.0,30.00,ENE,60,3.0,7.0,48,0.00,,,0.00,,2013-04-05 03:12:00,
2013-04-04 22:22:00,48.0,29.0,30.00,ENE,63,3.0,7.0,48,0.00,,,0.00,,2013-04-05 03:22:00,
2013-04-04 22:32:00,48.0,30.0,30.00,East,84,3.0,8.0,49,0.00,,,0.00,,2013-04-05 03:32:00,
2013-04-04 22:43:00,48.0,30.0,30.00,East,84,3.0,8.0,49,0.00,,,0.00,,2013-04-05 03:43:00,
2013-04-04 22:53:00,47.0,30.0,30.00,ENE,62,0.0,5.0,51,0.00,,,0.00,,2013-04-05 03:53:00,
2013-04-04 23:02:00,45.0,29.0,30.00,NE,49,1.0,3.0,53,0.00,,,0.00,,2013-04-05 04:02:00,
2013-04-04 23:12:00,45.0,29.0,30.00,NE,49,1.0,3.0,53,0.00,,,0.00,,2013-04-05 04:12:00,
2013-04-04 23:22:00,45.0,29.0,30.00,ENE,61,0.0,4.0,54,0.00,,,0.00,,2013-04-05 04:22:00,
2013-04-04 23:32:00,44.0,28.0,30.00,NNE,26,0.0,7.0,54,0.00,,,0.00,,2013-04-05 04:32:00,
2013-04-04 23:42:00,44.0,28.0,30.00,NNE,26,0.0,7.0,54,0.00,,,0.00,,2013-04-05 04:42:00,
2013-04-04 23:52:00,44.0,29.0,30.00,ENE,58,1.0,4.0,55,0.00,,,0.00,,2013-04-05 04:52:00,